TITAN 3C TRANSTAGE DEB, 26528

Orbit data source: Space-Track

TITAN 3C TRANSTAGE DEB, 26528 is space debris in HEO originally from a launch on Tue, 21 Dec 1965 UTC launched from the Air Force Eastern Test Range (AFETR). Debris objects in space refer to the collection of defunct objects orbiting the Earth. Examples of debris include non-operational satellites, rocket bodies, and fragments generated from explosions, collisions, or faulty payload assembly.

Loading next visibility...
Identifier
26528, 1965-108AP
Orbit
HEO
Last TLE update
15 hours ago
Origin
Manufacturer
Unknown
Mission
Spacecraft
Bus & Motor
Unknown
Mass
Unknown
Launch date (UTC)
1965-12-21 (60 years ago)
Launch vehicle
Unknown
Launch site
Air Force Eastern Test Range (AFETR)
Object type
Payload
Rocket body
Debris
Shape & HBR
Unknown
Radar Cross Section
Medium (>0.1 m² and <1 m²)

Expand to show TLE details & history

TLE from 15 hours ago
0 TITAN 3C TRANSTAGE DEB
1 26528U 65108AP  25181.83480988  .00000338  00000-0  25185-1 0  9994
2 26528  27.4344  60.9294 6670307  76.4474 242.3299  2.68079325259010
Epoch: 2025-06-30T20:02Z
TLE epoch observation values (Epoch: 2025-06-30T20:02:07.573Z)
Latitude
-27.39201°
Longitude
115.943°
Altitude
26,934.973 km
Speed
2.392 km/s
True Right ascension
22h 22m 27s
True Declination
-27° 21' 43"
Sunlit
Object was in daylight at epoch
Visualization orbit readout
Latitude
-22.9554°
Longitude
75.62942°
Altitude
26,517.165 km
Speed
2.455 km/s
Apparent Right ascension
19h 13m 55s
Apparent Declination
-32° 15' 32"
Sunlit
Object is in daylight
Visualization observer readout
Local Sidereal Time
22:22:49
Azimuth
218.587° SW
Elevation
5.625°
Doppler factor
1
Orbital elements
Apogee altitude
30,117.08 km
Perigee altitude
911.343 km
Semi-major axis
21,892.349 km
Eccentricity
0.66703
Inclination
27.4344°
RAAN
60.9294°
Arg. of periapsis
76.4474°
True anomaly
Unknown
Mean anomaly
242.3299°
Eccentric anomaly
Unknown
Mean motion
0.67005 °/min
Orbital period
537.28 mins
BSTAR
0.025185
Loading maneuver chart data...
Loading SW <> Apogee altitude chart data...

TITAN 3C TRANSTAGE DEB Visibility forecast

Observer location: undefined°, undefined°

Span
Click to sort rows by Start time (UTC) header in descending order
Start Az.
Max El. time (UTC)
Max El. Az.
Max El.
End time (UTC)
End Az.
20 mins2025-07-01 16:18:19.459Z200.776° SSW2025-07-01 16:32:19.459Z174.42° S14.01°2025-07-01 16:38:19.459Z148.43° SSE
46 mins2025-07-02 01:59:19.459Z233.923° WSW2025-07-02 02:06:19.459Z182.339° SSW27.565°2025-07-02 02:45:19.459Z134.011° SE
|